Weather History for KSAZ - April, 2013

Change the Weather History Date:

Sunday, April 7, 2013

  Actual Average Record
Temperature  
Mean Temperature 34 °F -  
Max Temperature 37 °F 48 °F 109 °F (1999)
Min Temperature 30 °F 27 °F 6 °F (1997)
Degree Days  
Heating Degree Days 32    
Moisture  
Dew Point 28 °F    
Average Humidity 79    
Maximum Humidity 100    
Minimum Humidity 65    
Precipitation  
Precipitation 0.10 in - - ()
Sea Level Pressure  
Sea Level Pressure 29.83 in    
Wind  
Wind Speed 6 mph (NW)    
Max Wind Speed 12 mph    
Max Gust Speed -    
Visibility 9 miles    
Events Rain    
Averages and records for this station are not official NWS values.
T = Trace of Precipitation, MM = Missing Value Source: NWS Daily Summary

Daily Weather History Graph

Daily Weather History Graph

Search for Another Location

Airport or City:

Trip Planner

Search our weather history database for the weather conditions in past years. The results will help you decide how hot, cold, wet, or windy it might be!

Date:

Astronomy

Apr. 07, 2013 Rise Set
Actual Time 6:46 AM CDT 7:56 PM CDT
Civil Twilight 6:15 AM CDT 8:27 PM CDT
Nautical Twilight 5:38 AM CDT 9:04 PM CDT
Astronomical Twilight 4:59 AM CDT 9:44 PM CDT
Moon 5:13 AM CDT (4/7) 5:22 PM CDT (4/7)
Length of Visible Light 14h 11m
Length of Day
13h 09m
Waning Crescent, 8% of the Moon is Illuminated
Apr 7
Waning Crescent
Apr 10
New
Apr 18
First Quarter
Apr 25
Full
May 2
Last Quarter

Hourly Weather History & Observations

Time (CDT) Temp. Windchill Dew Point Humidity Pressure Visibility Wind Dir Wind Speed Gust Speed Precip Events Conditions
12:14 AM 33.8 °F 26.4 °F 30.2 °F 87% 29.77 in 10.0 mi WNW 9.2 mph - N/A   Overcast
12:33 AM 33.8 °F 27.0 °F 30.2 °F 87% 29.77 in 10.0 mi NW 8.1 mph - N/A   Overcast
12:53 AM 32.0 °F 24.2 °F 30.2 °F 93% 29.78 in 10.0 mi NW 9.2 mph - N/A   Overcast
1:14 AM 33.8 °F 26.4 °F 28.4 °F 81% 29.78 in 10.0 mi NW 9.2 mph - N/A   Overcast
1:33 AM 33.8 °F 26.4 °F 28.4 °F 81% 29.78 in 10.0 mi NNW 9.2 mph - N/A   Overcast
1:53 AM 32.0 °F 24.8 °F 28.4 °F 87% 29.79 in 10.0 mi NW 8.1 mph - N/A   Overcast
2:13 AM 32.0 °F 24.8 °F 28.4 °F 87% 29.79 in 10.0 mi NW 8.1 mph - N/A   Overcast
2:33 AM 32.0 °F 26.4 °F 28.4 °F 87% 29.79 in 10.0 mi NNW 5.8 mph - N/A   Overcast
2:54 AM 32.0 °F 24.8 °F 28.4 °F 87% 29.79 in 10.0 mi NNW 8.1 mph - N/A   Overcast
3:13 AM 32.0 °F 24.8 °F 28.4 °F 87% 29.79 in 10.0 mi NNW 8.1 mph - N/A   Overcast
3:33 AM 32.0 °F 24.8 °F 28.4 °F 87% 29.79 in 10.0 mi NNW 8.1 mph - N/A   Overcast
3:54 AM 32.0 °F 24.8 °F 28.4 °F 87% 29.80 in 10.0 mi NNW 8.1 mph - N/A   Overcast
4:13 AM 32.0 °F 24.2 °F 26.6 °F 80% 29.81 in 10.0 mi North 9.2 mph - N/A   Overcast
4:33 AM 32.0 °F 26.4 °F 26.6 °F 80% 29.81 in 10.0 mi North 5.8 mph - N/A   Overcast
4:54 AM 32.0 °F 24.8 °F 26.6 °F 80% 29.82 in 10.0 mi North 8.1 mph - N/A   Overcast
5:13 AM 32.0 °F 26.4 °F 26.6 °F 80% 29.82 in 10.0 mi NNW 5.8 mph - N/A   Overcast
5:33 AM 32.0 °F 28.7 °F 26.6 °F 80% 29.83 in 10.0 mi NNW 3.5 mph - N/A   Overcast
5:54 AM 30.2 °F 26.7 °F 26.6 °F 86% 29.83 in 10.0 mi NNW 3.5 mph - N/A   Overcast
6:13 AM 30.2 °F - 26.6 °F 86% 29.84 in 10.0 mi Calm Calm - N/A   Overcast
6:33 AM 32.0 °F 27.5 °F 26.6 °F 80% 29.85 in 10.0 mi North 4.6 mph - N/A   Overcast
6:54 AM 32.0 °F 26.4 °F 26.6 °F 80% 29.86 in 10.0 mi NNW 5.8 mph - N/A   Overcast
7:13 AM 30.2 °F - 26.6 °F 86% 29.87 in 10.0 mi Calm Calm - N/A   Overcast
7:33 AM 30.2 °F 26.7 °F 28.4 °F 93% 29.87 in 10.0 mi NW 3.5 mph - N/A   Overcast
7:54 AM 30.2 °F - 26.6 °F 86% 29.87 in 10.0 mi Calm Calm - N/A   Overcast
8:13 AM 32.0 °F 27.5 °F 26.6 °F 80% 29.87 in 10.0 mi North 4.6 mph - N/A   Overcast
8:33 AM 33.8 °F 30.8 °F 26.6 °F 75% 29.87 in 10.0 mi North 3.5 mph - N/A   Overcast
8:54 AM 32.0 °F - 26.6 °F 80% 29.87 in 10.0 mi Calm Calm - N/A   Overcast
9:13 AM 33.8 °F 30.8 °F 26.6 °F 75% 29.87 in 10.0 mi North 3.5 mph - N/A   Overcast
9:33 AM 33.8 °F - 26.6 °F 75% 29.87 in 10.0 mi Calm Calm - N/A   Overcast
9:54 AM 33.8 °F - 26.6 °F 75% 29.87 in 10.0 mi Calm Calm - N/A   Overcast
10:13 AM 33.8 °F - 26.6 °F 75% 29.87 in 10.0 mi Calm Calm - N/A   Overcast
10:33 AM 33.8 °F - 26.6 °F 75% 29.88 in 10.0 mi Calm Calm - N/A   Overcast
10:54 AM 33.8 °F - 26.6 °F 75% 29.89 in 10.0 mi Calm Calm - N/A   Overcast
11:13 AM 33.8 °F - 26.6 °F 75% 29.89 in 10.0 mi Calm Calm - N/A   Overcast
11:34 AM 33.8 °F - 26.6 °F 75% 29.90 in 10.0 mi Calm Calm - N/A   Overcast
11:53 AM 33.8 °F 30.8 °F 26.6 °F 75% 29.90 in 10.0 mi South 3.5 mph - N/A   Overcast
12:13 PM 33.8 °F - 26.6 °F 75% 29.89 in 10.0 mi Calm Calm - N/A   Overcast
12:33 PM 33.8 °F 30.8 °F 26.6 °F 75% 29.88 in 10.0 mi South 3.5 mph - N/A   Overcast
12:53 PM 35.6 °F 32.8 °F 26.6 °F 70% 29.88 in 10.0 mi South 3.5 mph - N/A   Overcast
1:13 PM 35.6 °F 29.9 °F 26.6 °F 70% 29.87 in 10.0 mi South 6.9 mph - N/A   Overcast
1:33 PM 35.6 °F 30.7 °F 26.6 °F 70% 29.86 in 10.0 mi South 5.8 mph - N/A   Unknown
1:53 PM 35.6 °F 29.2 °F 26.6 °F 70% 29.86 in 10.0 mi South 8.1 mph - N/A   Overcast
2:13 PM 37.4 °F 32.1 °F 28.4 °F 70% 29.85 in 10.0 mi South 6.9 mph - N/A   Overcast
2:33 PM 37.4 °F 32.1 °F 26.6 °F 65% 29.84 in 10.0 mi SSE 6.9 mph - N/A   Overcast
2:54 PM 37.4 °F 31.4 °F 28.4 °F 70% 29.83 in 10.0 mi South 8.1 mph - N/A   Mostly Cloudy
3:13 PM 37.4 °F 32.1 °F 28.4 °F 70% 29.82 in 10.0 mi SSE 6.9 mph - N/A   Scattered Clouds
3:33 PM 37.4 °F 29.8 °F 28.4 °F 70% 29.82 in 10.0 mi South 11.5 mph - N/A   Scattered Clouds
3:53 PM 37.4 °F 31.4 °F 28.4 °F 70% 29.81 in 10.0 mi South 8.1 mph - N/A   Scattered Clouds
4:13 PM 37.4 °F 31.4 °F 28.4 °F 70% 29.80 in 10.0 mi South 8.1 mph - N/A   Scattered Clouds
4:34 PM 37.4 °F 30.3 °F 28.4 °F 70% 29.80 in 10.0 mi South 10.4 mph - N/A   Clear
4:53 PM 37.4 °F 30.8 °F 28.4 °F 70% 29.80 in 10.0 mi South 9.2 mph - N/A   Clear
5:12 PM 37.4 °F 31.4 °F 28.4 °F 70% 29.79 in 10.0 mi SSE 8.1 mph - N/A   Mostly Cloudy
5:34 PM 37.4 °F 32.8 °F 28.4 °F 70% 29.79 in 10.0 mi SE 5.8 mph - N/A   Scattered Clouds
5:53 PM 37.4 °F 29.8 °F 28.4 °F 70% 29.80 in 10.0 mi South 11.5 mph - N/A   Scattered Clouds
6:13 PM 37.4 °F 30.3 °F 28.4 °F 70% 29.81 in 10.0 mi SSE 10.4 mph - N/A   Mostly Cloudy
6:34 PM 37.4 °F 32.1 °F 28.4 °F 70% 29.81 in 10.0 mi South 6.9 mph - N/A   Overcast
6:53 PM 37.4 °F 32.8 °F 28.4 °F 70% 29.81 in 10.0 mi SSE 5.8 mph - N/A   Overcast
7:13 PM 37.4 °F 33.8 °F 30.2 °F 75% 29.81 in 10.0 mi South 4.6 mph - N/A   Overcast
7:34 PM 37.4 °F - 30.2 °F 75% 29.81 in 10.0 mi Calm Calm - N/A   Overcast
7:53 PM 35.6 °F - 30.2 °F 81% 29.82 in 10.0 mi Calm Calm - N/A   Overcast
8:13 PM 37.4 °F - 30.2 °F 75% 29.81 in 10.0 mi Calm Calm - N/A   Overcast
8:34 PM 37.4 °F - 30.2 °F 75% 29.80 in 10.0 mi Calm Calm - N/A   Light Drizzle
8:53 PM 35.6 °F - 30.2 °F 81% 29.80 in 10.0 mi Calm Calm - N/A   Overcast
9:13 PM 35.6 °F - 30.2 °F 81% 29.80 in 10.0 mi Calm Calm - N/A Rain Light Rain
9:34 PM 35.6 °F 32.8 °F 30.2 °F 81% 29.80 in 10.0 mi ENE 3.5 mph - N/A   Drizzle
9:53 PM 35.6 °F 31.7 °F 30.2 °F 81% 29.79 in 7.0 mi ENE 4.6 mph - N/A   Drizzle
10:13 PM 35.6 °F 32.8 °F 32.0 °F 87% 29.79 in 5.0 mi ENE 3.5 mph - N/A   Heavy Drizzle
10:34 PM 33.8 °F - 32.0 °F 93% 29.79 in 4.0 mi Calm Calm - 0.02 in Rain Light Rain
10:53 PM 33.8 °F - 33.8 °F 100% 29.80 in 3.0 mi Calm Calm - 0.05 in Rain Light Rain
11:13 PM 33.8 °F 30.8 °F 33.8 °F 100% 29.79 in 3.0 mi ENE 3.5 mph - 0.02 in Rain Light Rain
11:34 PM 33.8 °F 30.8 °F 33.8 °F 100% 29.78 in 4.0 mi ENE 3.5 mph - 0.04 in Rain Light Rain
11:53 PM 33.8 °F - 33.8 °F 100% 29.78 in 4.0 mi Calm Calm - 0.05 in   Drizzle